STARLINK-31471, 59568

Orbit data source: Space-Track

STARLINK-31471, 59568 is a payload satellite owned by SpaceX/Seattle (US) in LEO that was launched on Tue, 23 Apr 2024 UTC via an FALCON 9 launch vehicle from the Air Force Eastern Test Range (AFETR). Payload-class satellites include a variety of spacecraft equipped with specific instruments for various scientific and technological missions. These include communications satellites like Starlink; space stations such as the ISS; scientific satellites like the Hubble; Earth observation satellites from companies like Planet Labs, Umbra, and HawkEye 360; GPS; miniature CubeSats for education and research; and military/defense satellites.

Loading next visibility...
Identifier
59568, 2024-076E
Orbit
LEO
Country
Flag of USUS
Related business
Manufacturer
SpaceX/Seattle
Mission
Operational Commercial Communications
Bus & Motor
STARLINK V2M, Unknown motor
Mass
730 kg wet, ~700 kg dry
Launch date (UTC)
2024-04-23 (2 years ago)
Launch vehicle
FALCON 9
Launch site
Air Force Eastern Test Range (AFETR)
Object type
Payload
Rocket body
Debris
Shape & HBR
Box + 2 Pan, 17.7 m
Radar Cross Section
33.884 m², Large (>1 m²)

Expand to show TLE details & history
Last TLE update: 22 hours ago

TLE from 22 hours ago
0 STARLINK-31471
1 59568U 24076E   25348.68304465  .00004031  00000-0  15596-3 0  9997
2 59568  42.9980 128.9290 0001574 261.2111  98.8562 15.27573846 93412
Epoch: 2025-12-14T16:23Z
TLE epoch observation values (Epoch: 2025-12-14T16:23:35.057Z)
Latitude
-0.00006°
Longitude
159.44042°
Altitude
483.009 km
Speed
7.626 km/s
True Right ascension
08h 35m 42s
True Declination
0° 00' 00"
Sunlit
Object was in full shadow at epoch
Visualization orbit readout
Latitude
Unknown
Longitude
Unknown
Altitude
Unknown
Speed
Unknown
Apparent Right ascension
Unknown
Apparent Declination
Unknown
Sunlit
N/A
Visualization observer readout
Local Sidereal Time
13:23:49
Azimuth
Unknown
Elevation
Unknown
Doppler factor
Unknown
Orbital elements
Apogee altitude
486.093 km
Perigee altitude
483.933 km
Semi-major axis
6,863.15 km
Eccentricity
0.00016
Inclination
42.998°
RAAN
128.929°
Arg. of periapsis
261.2111°
True anomaly
98.87402°
Mean anomaly
98.8562°
Eccentric anomaly
98.86511°
Mean motion
3.81731 °/min
Orbital period
94.31 mins
BSTAR
0.00015596
Loading maneuver chart data...
Computing Atmospheric mass density...
Loading historical data...
Loading historical data...
Loading historical data...
Loading historical data...
Loading historical data...
Loading historical data...
Loading historical data...

Documentation

Showing up to 5 results
|